Flag for Guinea Weather past 2 weeks in Nzérékoré, Guinea

Now
88 °F

Partly sunny.


Feels Like: 98 °F
Forecast: 68 / 85 °F
Wind: 7 mph from West

Location: Bamako / Senou

Current Time: Jul 23, 2014 at 12:42:52 PM

Latest Report: Jul 23, 2014 at 12:00 PM


Visibility: N/A

Pressure: 30.07 "Hg

Humidity: 66%

Dew point: 75 °F

Location of NzérékoréLocation

Historic Weather in Nzérékoré — Graph

°F

Nzérékoré temperature yesterday

Maximum temperature yesterday: 88 °F (at 12:30 PM)
Minimum temperature yesterday: 73 °F (at 6:00 AM)
Average temperature yesterday: 78 °F

Past Weeks' High & Low Weather Summary

 TemperatureHumidityPressure
High95 °F (Jul 11, 3:00 PM)100% (Jul 8, 5:30 PM)30.09 "Hg (Jul 8, 5:30 PM)
Low70 °F (Jul 17, 8:30 PM)41% (Jul 10, 4:00 PM)29.74 "Hg (Jul 22, 3:00 PM)
Average82 °F78%30.00 "Hg
* Reported Jul 8 11:00 AM — Jul 23 11:30 AM, Nzérékoré, Weather by CustomWeather, © 2014

Note: Actual official high and low records may vary slightly from our data, if they occured in-between our weather recording intervals... More about our weather records

Advertising

Nzérékoré weather history for previous 24 hours

 ConditionsComfort  
Time TempWeatherWind HumidityBarometerVisibility
11:30 AM
Jul 23
86 °FBroken clouds.9 mph70%30.07 "HgN/A
11:00 AM84 °FScattered clouds.8 mph74%30.07 "HgN/A
10:30 AM82 °FScattered clouds.8 mph79%30.07 "HgN/A
10:00 AM82 °FScattered clouds.9 mph79%30.07 "HgN/A
9:30 AM81 °FBroken clouds.9 mph84%30.09 "HgN/A
9:00 AM79 °FBroken clouds.8 mph89%30.09 "HgN/A
5:00 AM73 °FClear.2 mph100%30.04 "Hg10 mi
4:30 AM73 °FClear.1 mph100%30.01 "Hg10 mi
4:00 AM73 °FClear.2 mph100%30.01 "Hg10 mi
3:30 AM73 °FClear.2 mph100%30.04 "Hg10 mi
3:00 AM73 °FClear.5 mph100%30.01 "Hg10 mi
2:30 AM73 °FClear.3 mph100%30.01 "Hg10 mi
2:00 AM73 °FClear.No wind100%30.01 "Hg10 mi
1:30 AM73 °FClear.2 mph100%30.01 "Hg10 mi
1:00 AM73 °FClear.3 mph100%30.04 "Hg10 mi
12:30 AM73 °FClear.6 mph100%30.01 "Hg10 mi
12:00 AM73 °FClear.7 mph100%30.04 "Hg10 mi
11:00 PM
Jul 22
75 °FClear.5 mph100%30.01 "Hg10 mi
5:00 PM82 °FPartly sunny.2 mph70%29.98 "HgN/A
4:30 PM82 °FBroken clouds.5 mph70%30.01 "HgN/A
4:00 PM81 °FBroken clouds.9 mph79%30.01 "HgN/A
3:30 PM79 °FBroken clouds.12 mph84%30.04 "HgN/A
3:00 PM77 °FBroken clouds.16 mph79%29.74 "HgN/A
2:30 PM77 °FLight rain. Broken clouds.17 mph83%30.01 "HgN/A
2:00 PM73 °FThunderstorms. Broken clouds.22 mph94%30.04 "Hg4 mi
1:30 PM73 °FThunderstorms. Broken clouds.23 mph94%30.07 "Hg5 mi
1:00 PM79 °FThunderstorms. Broken clouds.22 mph74%30.07 "Hg4 mi
12:30 PM88 °FScattered clouds.7 mph52%30.04 "HgN/A
12:00 PM86 °FBroken clouds.9 mph66%30.07 "HgN/A
Weather by CustomWeather, © 2014

See weather overviewHow to use our weather pages